ACA158 CYYC-CYYZ

Flight info

Callsign ACA158
Flight time 3h 14m
Altitude 33000
Route LOMLO Q961 DAPOP DCT UDBOX/N0453F350 DCT YQT DCT OTNIK BOXUM7
Aircraft B38M/M-SDE2E3FGHIRWXY/LB1

Departure

Time 2026-05-07 15:06
Airport Calgary International Airport (CYYC)

Arrival

Time 2026-05-07 18:20
Airport Toronto Pearson International Airport (CYYZ)
Time Latitude Longitude Altitude Speed Heading
2026-05-07 14:43 51.12826 -114.00763 3559 ft 0 kts 317°
2026-05-07 14:54 51.12826 -114.00762 3557 ft 1 kts 317°
2026-05-07 14:54 51.12808 -114.00736 3556 ft 4 kts 319°
2026-05-07 14:54 51.12787 -114.00717 3558 ft 4 kts
2026-05-07 14:54 51.12764 -114.00728 3562 ft 4 kts 32°
2026-05-07 14:55 51.12748 -114.00757 3562 ft 4 kts 72°
2026-05-07 14:55 51.12745 -114.00798 3562 ft 4 kts 93°
2026-05-07 14:55 51.12746 -114.00822 3562 ft 1 kts 95°
2026-05-07 14:58 51.12746 -114.00821 3562 ft 1 kts 96°
2026-05-07 14:58 51.12733 -114.00804 3557 ft 6 kts 152°
2026-05-07 14:58 51.12666 -114.00794 3562 ft 14 kts 181°
2026-05-07 14:59 51.12613 -114.00709 3562 ft 13 kts 90°
2026-05-07 14:59 51.12613 -114.00567 3562 ft 13 kts 90°
2026-05-07 14:59 51.12613 -114.00415 3562 ft 15 kts 90°
2026-05-07 14:59 51.12614 -114.00234 3562 ft 18 kts 89°
2026-05-07 15:00 51.12612 -114.00010 3562 ft 22 kts 90°
2026-05-07 15:00 51.12613 -113.99741 3562 ft 26 kts 90°
2026-05-07 15:00 51.12613 -113.99500 3562 ft 14 kts 91°
2026-05-07 15:00 51.12567 -113.99446 3562 ft 9 kts 179°
2026-05-07 15:01 51.12492 -113.99446 3562 ft 14 kts 180°
2026-05-07 15:01 51.12366 -113.99446 3561 ft 21 kts 180°
2026-05-07 15:01 51.12213 -113.99446 3557 ft 22 kts 180°
2026-05-07 15:01 51.12060 -113.99446 3562 ft 22 kts 180°
2026-05-07 15:02 51.11904 -113.99447 3562 ft 23 kts 180°
2026-05-07 15:02 51.11747 -113.99448 3561 ft 23 kts 180°
2026-05-07 15:02 51.11589 -113.99448 3558 ft 23 kts 180°
2026-05-07 15:02 51.11428 -113.99448 3560 ft 23 kts 180°
2026-05-07 15:03 51.11265 -113.99449 3562 ft 24 kts 180°
2026-05-07 15:03 51.11109 -113.99448 3562 ft 21 kts 180°
2026-05-07 15:03 51.11035 -113.99389 3560 ft 12 kts 104°
2026-05-07 15:03 51.11033 -113.99257 3563 ft 12 kts 90°
2026-05-07 15:04 51.11033 -113.99135 3565 ft 10 kts 90°
2026-05-07 15:04 51.11035 -113.99048 3567 ft 6 kts 69°
2026-05-07 15:04 51.11066 -113.99035 3563 ft 5 kts 355°
2026-05-07 15:04 51.11162 -113.99037 3559 ft 35 kts 360°
2026-05-07 15:05 51.11612 -113.99037 3565 ft 92 kts 360°
2026-05-07 15:05 51.12423 -113.99037 3565 ft 139 kts 360°
2026-05-07 15:05 51.13509 -113.99027 3674 ft 164 kts 358°
2026-05-07 15:05 51.14665 -113.99016 4130 ft 172 kts 357°
2026-05-07 15:06 51.15872 -113.98982 4733 ft 172 kts 358°
2026-05-07 15:06 51.17062 -113.98921 5403 ft 174 kts 359°
2026-05-07 15:06 51.18281 -113.98316 5603 ft 204 kts 35°
2026-05-07 15:06 51.19042 -113.96225 5858 ft 240 kts 76°
2026-05-07 15:07 51.18996 -113.93423 6239 ft 265 kts 95°
2026-05-07 15:07 51.18490 -113.90568 6781 ft 280 kts 106°
2026-05-07 15:07 51.17802 -113.87526 7216 ft 294 kts 105°
2026-05-07 15:07 51.17125 -113.84494 7985 ft 294 kts 106°
2026-05-07 15:08 51.16430 -113.81354 8680 ft 299 kts 105°
2026-05-07 15:08 51.15748 -113.78258 9369 ft 302 kts 105°
2026-05-07 15:08 51.15048 -113.75081 10034 ft 305 kts 105°
2026-05-07 15:08 51.14337 -113.71825 10412 ft 320 kts 105°
2026-05-07 15:09 51.13598 -113.68375 10611 ft 339 kts 106°
2026-05-07 15:09 51.12809 -113.64760 10928 ft 353 kts 106°
2026-05-07 15:09 51.11991 -113.61057 11555 ft 356 kts 107°
2026-05-07 15:09 51.11159 -113.57324 12173 ft 361 kts 107°
2026-05-07 15:10 51.10314 -113.53543 12831 ft 365 kts 107°
2026-05-07 15:10 51.09457 -113.49718 13492 ft 369 kts 107°
2026-05-07 15:10 51.08590 -113.45852 14108 ft 373 kts 107°
2026-05-07 15:10 51.07712 -113.41950 14718 ft 377 kts 107°
2026-05-07 15:11 51.06949 -113.37956 15333 ft 378 kts 96°
2026-05-07 15:11 51.06770 -113.35211 15755 ft 378 kts 91°
2026-05-07 15:11 51.06525 -113.31025 16339 ft 383 kts 92°
2026-05-07 15:11 51.06270 -113.26788 16959 ft 386 kts 92°
2026-05-07 15:12 51.06009 -113.22517 17552 ft 390 kts 93°
2026-05-07 15:12 51.05709 -113.18213 18140 ft 394 kts 93°
2026-05-07 15:12 51.05405 -113.13861 18645 ft 397 kts 93°
2026-05-07 15:12 51.05098 -113.09476 19136 ft 401 kts 93°
2026-05-07 15:13 51.04789 -113.05054 19609 ft 405 kts 93°
2026-05-07 15:13 51.04474 -113.00587 20088 ft 408 kts 92°
2026-05-07 15:13 51.04156 -112.96091 20560 ft 411 kts 92°
2026-05-07 15:13 51.03833 -112.91554 21018 ft 415 kts 92°
2026-05-07 15:14 51.03505 -112.86981 21477 ft 418 kts 92°
2026-05-07 15:14 51.03173 -112.82369 21930 ft 422 kts 92°
2026-05-07 15:14 51.02840 -112.77779 22371 ft 425 kts 92°
2026-05-07 15:14 51.02500 -112.73096 22823 ft 428 kts 92°
2026-05-07 15:15 51.02154 -112.68380 23264 ft 432 kts 92°
2026-05-07 15:15 51.01804 -112.63631 23661 ft 435 kts 92°
2026-05-07 15:15 51.01450 -112.58848 24027 ft 437 kts 92°
2026-05-07 15:15 51.01092 -112.54036 24403 ft 440 kts 92°
2026-05-07 15:16 51.00729 -112.49196 24769 ft 442 kts 92°
2026-05-07 15:16 51.00363 -112.44333 25129 ft 445 kts 92°
2026-05-07 15:16 50.99992 -112.39436 25496 ft 447 kts 92°
2026-05-07 15:16 50.99618 -112.34523 25855 ft 450 kts 92°
2026-05-07 15:17 50.99238 -112.29570 26196 ft 453 kts 92°
2026-05-07 15:17 50.98855 -112.24603 26546 ft 455 kts 92°
2026-05-07 15:17 50.98468 -112.19603 26879 ft 457 kts 92°
2026-05-07 15:17 50.98077 -112.14585 27215 ft 460 kts 92°
2026-05-07 15:18 50.97682 -112.09538 27533 ft 462 kts 92°
2026-05-07 15:18 50.97282 -112.04468 27865 ft 464 kts 92°
2026-05-07 15:18 50.96878 -111.99368 28187 ft 467 kts 92°
2026-05-07 15:18 50.96469 -111.94252 28494 ft 469 kts 92°
2026-05-07 15:19 50.96057 -111.89109 28800 ft 471 kts 92°
2026-05-07 15:19 50.95640 -111.83942 29095 ft 474 kts 92°
2026-05-07 15:19 50.95219 -111.78744 29386 ft 476 kts 92°
2026-05-07 15:19 50.94793 -111.73527 29667 ft 478 kts 91°
2026-05-07 15:20 50.94370 -111.68358 29944 ft 480 kts 91°
2026-05-07 15:20 50.93937 -111.63108 30195 ft 482 kts 91°
2026-05-07 15:20 50.93500 -111.57820 30431 ft 484 kts 92°
2026-05-07 15:20 50.93060 -111.52523 30667 ft 486 kts 92°
2026-05-07 15:21 50.92678 -111.47201 30885 ft 483 kts 86°
2026-05-07 15:21 50.92576 -111.41881 31091 ft 485 kts 86°
2026-05-07 15:21 50.92443 -111.36531 31305 ft 487 kts 86°
2026-05-07 15:21 50.92287 -111.31165 31539 ft 488 kts 86°
2026-05-07 15:22 50.92118 -111.25780 31755 ft 490 kts 87°
2026-05-07 15:22 50.91944 -111.20372 31977 ft 492 kts 87°
2026-05-07 15:22 50.91766 -111.14942 32199 ft 493 kts 87°
2026-05-07 15:22 50.91586 -111.09520 32471 ft 493 kts 87°
2026-05-07 15:23 50.91404 -111.04100 32764 ft 493 kts 87°
2026-05-07 15:23 50.91219 -110.98670 33070 ft 492 kts 87°
2026-05-07 15:23 50.91032 -110.93257 33361 ft 492 kts 87°
2026-05-07 15:23 50.90843 -110.87855 33641 ft 491 kts 87°
2026-05-07 15:24 50.90654 -110.82519 33909 ft 491 kts 87°
2026-05-07 15:24 50.90459 -110.77120 34139 ft 490 kts 88°
2026-05-07 15:24 50.90263 -110.71728 34369 ft 490 kts 88°
2026-05-07 15:24 50.90064 -110.66345 34586 ft 489 kts 88°
2026-05-07 15:25 50.89864 -110.60970 34803 ft 489 kts 88°
2026-05-07 15:25 50.89660 -110.55596 35017 ft 489 kts 88°
2026-05-07 15:25 50.89455 -110.50230 35232 ft 488 kts 89°
2026-05-07 15:25 50.89248 -110.44866 35433 ft 488 kts 89°
2026-05-07 15:26 50.89038 -110.39506 35643 ft 487 kts 89°
2026-05-07 15:26 50.88825 -110.34151 35838 ft 487 kts 89°
2026-05-07 15:26 50.88394 -110.23452 35904 ft 486 kts 89°
2026-05-07 15:27 50.87954 -110.12769 35915 ft 485 kts 89°
2026-05-07 15:27 50.87511 -110.02183 35908 ft 485 kts 90°
2026-05-07 15:28 50.87041 -109.91534 35925 ft 485 kts 90°
2026-05-07 15:28 50.86566 -109.80891 35910 ft 485 kts 90°
2026-05-07 15:29 50.86081 -109.70238 35912 ft 484 kts 90°
2026-05-07 15:29 50.85588 -109.59608 35910 ft 484 kts 91°
2026-05-07 15:30 50.85084 -109.48977 35915 ft 484 kts 91°
2026-05-07 15:30 50.84575 -109.38439 35915 ft 483 kts 91°
2026-05-07 15:31 50.84054 -109.27841 35917 ft 483 kts 91°
2026-05-07 15:31 50.83523 -109.17250 35917 ft 483 kts 91°
2026-05-07 15:32 50.82983 -109.06671 35919 ft 482 kts 91°
2026-05-07 15:32 50.82434 -108.96100 35922 ft 482 kts 92°
2026-05-07 15:33 50.81877 -108.85545 35921 ft 482 kts 92°
2026-05-07 15:33 50.81309 -108.74987 35926 ft 482 kts 92°
2026-05-07 15:34 50.80731 -108.64425 35927 ft 481 kts 92°
2026-05-07 15:34 50.80145 -108.53881 35933 ft 481 kts 92°
2026-05-07 15:35 50.79550 -108.43346 35936 ft 481 kts 92°
2026-05-07 15:35 50.78945 -108.32815 35937 ft 481 kts 92°
2026-05-07 15:36 50.78330 -108.22283 35942 ft 481 kts 93°
2026-05-07 15:36 50.77706 -108.11756 35938 ft 481 kts 93°
2026-05-07 15:37 50.77078 -108.01311 35938 ft 481 kts 93°
2026-05-07 15:37 50.76431 -107.90718 35942 ft 481 kts 93°
2026-05-07 15:38 50.75784 -107.80289 35938 ft 481 kts 93°
2026-05-07 15:38 50.75123 -107.69778 35937 ft 481 kts 93°
2026-05-07 15:39 50.74452 -107.59270 35946 ft 481 kts 93°
2026-05-07 15:39 50.73772 -107.48767 35948 ft 481 kts 93°
2026-05-07 15:40 50.73082 -107.38261 35947 ft 481 kts 93°
2026-05-07 15:40 50.72382 -107.27747 35952 ft 481 kts 93°
2026-05-07 15:41 50.71672 -107.17243 35954 ft 482 kts 94°
2026-05-07 15:41 50.70953 -107.06735 35957 ft 482 kts 94°
2026-05-07 15:42 50.70224 -106.96219 35959 ft 482 kts 94°
2026-05-07 15:42 50.69486 -106.85717 35960 ft 482 kts 94°
2026-05-07 15:43 50.68738 -106.75211 35962 ft 482 kts 94°
2026-05-07 15:43 50.67985 -106.64773 35962 ft 482 kts 94°
2026-05-07 15:44 50.67219 -106.54269 35962 ft 483 kts 94°
2026-05-07 15:44 50.66442 -106.43764 35966 ft 483 kts 94°
2026-05-07 15:45 50.65655 -106.33260 35966 ft 483 kts 94°
2026-05-07 15:45 50.64859 -106.22754 35963 ft 483 kts 94°
2026-05-07 15:46 50.63645 -106.06983 35961 ft 483 kts 94°
2026-05-07 15:47 50.62824 -105.96470 35963 ft 483 kts 94°
2026-05-07 15:47 50.61993 -105.85968 35966 ft 484 kts 94°
2026-05-07 15:48 50.61153 -105.75461 35961 ft 484 kts 94°
2026-05-07 15:48 50.60303 -105.64955 35964 ft 484 kts 94°
2026-05-07 15:49 50.59444 -105.54448 35966 ft 484 kts 94°
2026-05-07 15:49 50.58575 -105.43947 35973 ft 484 kts 94°
2026-05-07 15:50 50.57696 -105.33448 35972 ft 484 kts 94°
2026-05-07 15:50 50.56813 -105.23020 35978 ft 484 kts 94°
2026-05-07 15:51 50.55916 -105.12527 35972 ft 484 kts 94°
2026-05-07 15:51 50.55008 -105.02030 35957 ft 484 kts 94°
2026-05-07 15:52 50.54091 -104.91536 35956 ft 484 kts 94°
2026-05-07 15:52 50.53164 -104.81053 35945 ft 484 kts 95°
2026-05-07 15:53 50.52230 -104.70579 35944 ft 484 kts 95°
2026-05-07 15:53 50.51285 -104.60110 35950 ft 484 kts 95°
2026-05-07 15:54 50.50332 -104.49645 35950 ft 484 kts 95°
2026-05-07 15:54 50.49369 -104.39193 35955 ft 484 kts 95°
2026-05-07 15:55 50.48397 -104.28740 35959 ft 484 kts 95°
2026-05-07 15:55 50.47416 -104.18290 35960 ft 484 kts 95°
2026-05-07 15:56 50.46424 -104.07841 35963 ft 484 kts 95°
2026-05-07 15:56 50.45424 -103.97401 35961 ft 484 kts 95°
2026-05-07 15:57 50.44414 -103.86964 35962 ft 484 kts 95°
2026-05-07 15:57 50.43396 -103.76536 35962 ft 484 kts 95°
2026-05-07 15:58 50.42374 -103.66174 35959 ft 484 kts 95°
2026-05-07 15:58 50.41337 -103.55752 35962 ft 484 kts 95°
2026-05-07 15:59 50.40289 -103.45325 35959 ft 484 kts 95°
2026-05-07 15:59 50.39232 -103.34911 35956 ft 484 kts 95°
2026-05-07 16:00 50.38166 -103.24493 35954 ft 484 kts 95°
2026-05-07 16:00 50.37092 -103.14092 35967 ft 484 kts 95°
2026-05-07 16:01 50.36191 -103.05447 35954 ft 484 kts 95°
2026-05-07 16:01 50.34912 -102.93279 35951 ft 484 kts 95°
2026-05-07 16:02 50.33997 -102.84642 35956 ft 484 kts 95°
2026-05-07 16:02 50.32886 -102.74255 35960 ft 484 kts 95°
2026-05-07 16:03 50.31766 -102.63873 35960 ft 484 kts 95°
2026-05-07 16:03 50.30639 -102.53506 35957 ft 484 kts 95°
2026-05-07 16:04 50.29501 -102.43134 35955 ft 484 kts 95°
2026-05-07 16:04 50.28354 -102.32770 35956 ft 484 kts 95°
2026-05-07 16:05 50.27198 -102.22415 35954 ft 484 kts 95°
2026-05-07 16:05 50.26039 -102.12114 35957 ft 484 kts 95°
2026-05-07 16:06 50.24863 -102.01755 35954 ft 484 kts 95°
2026-05-07 16:06 50.23678 -101.91396 35955 ft 484 kts 95°
2026-05-07 16:07 50.22483 -101.81041 35948 ft 485 kts 95°
2026-05-07 16:07 50.21277 -101.70679 35953 ft 485 kts 95°
2026-05-07 16:08 50.20062 -101.60316 35954 ft 485 kts 95°
2026-05-07 16:08 50.18839 -101.49964 35956 ft 486 kts 95°
2026-05-07 16:09 50.17604 -101.39606 35956 ft 486 kts 95°
2026-05-07 16:09 50.16366 -101.29306 35956 ft 486 kts 95°
2026-05-07 16:10 50.15113 -101.18948 35964 ft 486 kts 95°
2026-05-07 16:10 50.13848 -101.08586 35962 ft 487 kts 95°
2026-05-07 16:11 50.12573 -100.98221 35954 ft 487 kts 95°
2026-05-07 16:11 50.11310 -100.87998 35961 ft 487 kts 95°
2026-05-07 16:12 50.10050 -100.77884 35960 ft 487 kts 96°
2026-05-07 16:12 50.08751 -100.67528 35960 ft 488 kts 96°
2026-05-07 16:13 50.07443 -100.57172 35960 ft 488 kts 96°
2026-05-07 16:13 50.06125 -100.46810 35950 ft 488 kts 96°
2026-05-07 16:14 50.04799 -100.36459 35944 ft 488 kts 96°
2026-05-07 16:14 50.03464 -100.26113 35940 ft 488 kts 96°
2026-05-07 16:15 50.02129 -100.15836 35937 ft 488 kts 96°
2026-05-07 16:15 50.00776 -100.05498 35930 ft 488 kts 96°
2026-05-07 16:16 49.99496 -99.95153 35929 ft 487 kts 95°
2026-05-07 16:16 49.98290 -99.84793 35930 ft 487 kts 95°
2026-05-07 16:17 49.97080 -99.74444 35926 ft 487 kts 95°
2026-05-07 16:17 49.95862 -99.64103 35940 ft 487 kts 95°
2026-05-07 16:18 49.94633 -99.53760 35944 ft 487 kts 95°
2026-05-07 16:18 49.93397 -99.43426 35951 ft 487 kts 95°
2026-05-07 16:19 49.92150 -99.33098 35957 ft 487 kts 95°
2026-05-07 16:19 49.90896 -99.22788 35957 ft 487 kts 95°
2026-05-07 16:20 49.89633 -99.12475 35957 ft 486 kts 95°
2026-05-07 16:20 49.88369 -99.02241 35959 ft 486 kts 96°
2026-05-07 16:21 49.87088 -98.91954 35964 ft 486 kts 96°
2026-05-07 16:21 49.85799 -98.81671 35963 ft 486 kts 96°
2026-05-07 16:22 49.84501 -98.71403 35962 ft 485 kts 96°
2026-05-07 16:22 49.83194 -98.61138 35959 ft 485 kts 96°
2026-05-07 16:23 49.81880 -98.50886 35956 ft 485 kts 96°
2026-05-07 16:23 49.80556 -98.40647 35949 ft 485 kts 96°
2026-05-07 16:24 49.79225 -98.30415 35950 ft 484 kts 97°
2026-05-07 16:24 49.77887 -98.20213 35950 ft 484 kts 97°
2026-05-07 16:25 49.76538 -98.10001 35956 ft 484 kts 97°
2026-05-07 16:25 49.75183 -97.99811 35965 ft 484 kts 97°
2026-05-07 16:26 49.73820 -97.89637 35966 ft 483 kts 97°
2026-05-07 16:26 49.72448 -97.79469 35983 ft 483 kts 98°
2026-05-07 16:27 49.71076 -97.69372 35978 ft 483 kts 98°
2026-05-07 16:27 49.69758 -97.59740 35980 ft 483 kts 98°
2026-05-07 16:28 49.68362 -97.49602 35965 ft 482 kts 98°
2026-05-07 16:28 49.66960 -97.39485 35968 ft 482 kts 98°
2026-05-07 16:29 49.65547 -97.29368 35965 ft 482 kts 98°
2026-05-07 16:29 49.64128 -97.19273 35966 ft 482 kts 98°
2026-05-07 16:30 49.62699 -97.09179 35969 ft 481 kts 99°
2026-05-07 16:30 49.61262 -96.99093 35974 ft 481 kts 99°
2026-05-07 16:31 49.59815 -96.89007 35974 ft 481 kts 99°
2026-05-07 16:31 49.58373 -96.79015 35974 ft 481 kts 99°
2026-05-07 16:32 49.56913 -96.68971 35973 ft 481 kts 99°
2026-05-07 16:32 49.55444 -96.58931 35972 ft 480 kts 99°
2026-05-07 16:33 49.53968 -96.48904 35973 ft 480 kts 99°
2026-05-07 16:33 49.52482 -96.38875 35966 ft 480 kts 100°
2026-05-07 16:34 49.50988 -96.28857 35967 ft 480 kts 100°
2026-05-07 16:34 49.49486 -96.18856 35964 ft 479 kts 100°
2026-05-07 16:35 49.47978 -96.08871 35961 ft 479 kts 100°
2026-05-07 16:35 49.46462 -95.98898 35961 ft 479 kts 100°
2026-05-07 16:36 49.44938 -95.88937 35955 ft 479 kts 101°
2026-05-07 16:36 49.43416 -95.79047 35956 ft 478 kts 101°
2026-05-07 16:37 49.41876 -95.69100 35958 ft 478 kts 101°
2026-05-07 16:37 49.40328 -95.59170 35954 ft 478 kts 101°
2026-05-07 16:38 49.38772 -95.49240 35956 ft 478 kts 101°
2026-05-07 16:38 49.37209 -95.39331 35960 ft 478 kts 101°
2026-05-07 16:39 49.35637 -95.29425 35953 ft 478 kts 101°
2026-05-07 16:39 49.34057 -95.19527 35963 ft 478 kts 101°
2026-05-07 16:40 49.32468 -95.09637 35954 ft 478 kts 102°
2026-05-07 16:40 49.30872 -94.99759 35971 ft 478 kts 102°
2026-05-07 16:41 49.29268 -94.89888 35971 ft 477 kts 102°
2026-05-07 16:41 49.27655 -94.80019 35967 ft 477 kts 102°
2026-05-07 16:42 49.26034 -94.70160 35971 ft 477 kts 102°
2026-05-07 16:42 49.24405 -94.60311 35969 ft 477 kts 102°
2026-05-07 16:43 49.22767 -94.50467 35970 ft 478 kts 102°
2026-05-07 16:43 49.21121 -94.40625 35969 ft 478 kts 102°
2026-05-07 16:44 49.19466 -94.30791 35963 ft 477 kts 103°
2026-05-07 16:44 49.17813 -94.21026 35963 ft 477 kts 103°
2026-05-07 16:45 49.16132 -94.11147 35962 ft 477 kts 103°
2026-05-07 16:45 49.14464 -94.01404 35960 ft 477 kts 103°
2026-05-07 16:46 49.12778 -93.91606 35954 ft 477 kts 103°
2026-05-07 16:46 49.11083 -93.81815 35952 ft 477 kts 103°
2026-05-07 16:47 49.09379 -93.72020 35950 ft 477 kts 103°
2026-05-07 16:47 49.07667 -93.62240 35946 ft 477 kts 103°
2026-05-07 16:48 49.05946 -93.52461 35944 ft 477 kts 104°
2026-05-07 16:48 49.04217 -93.42692 35944 ft 477 kts 104°
2026-05-07 16:49 49.02479 -93.32922 35947 ft 478 kts 104°
2026-05-07 16:49 49.00732 -93.23154 35945 ft 478 kts 104°
2026-05-07 16:50 48.98978 -93.13398 35945 ft 478 kts 104°
2026-05-07 16:50 48.97213 -93.03639 35940 ft 478 kts 104°
2026-05-07 16:51 48.95741 -92.95541 35941 ft 478 kts 104°
2026-05-07 16:51 48.93964 -92.85805 35942 ft 478 kts 104°
2026-05-07 16:52 48.92178 -92.76076 35936 ft 478 kts 105°
2026-05-07 16:52 48.90383 -92.66350 35935 ft 478 kts 105°
2026-05-07 16:53 48.88579 -92.56629 35931 ft 478 kts 105°
2026-05-07 16:53 48.86768 -92.46914 35932 ft 478 kts 105°
2026-05-07 16:54 48.84949 -92.37214 35926 ft 478 kts 105°
2026-05-07 16:54 48.83124 -92.27525 35926 ft 478 kts 105°
2026-05-07 16:55 48.81298 -92.17889 35922 ft 478 kts 105°
2026-05-07 16:55 48.79443 -92.08144 35921 ft 478 kts 106°
2026-05-07 16:56 48.77591 -91.98465 35921 ft 478 kts 106°
2026-05-07 16:56 48.74797 -91.83962 35922 ft 478 kts 106°
2026-05-07 16:57 48.72936 -91.74361 35918 ft 478 kts 106°
2026-05-07 16:57 48.71056 -91.64705 35918 ft 478 kts 106°
2026-05-07 16:58 48.69168 -91.55064 35911 ft 478 kts 106°
2026-05-07 16:58 48.67269 -91.45414 35913 ft 478 kts 107°
2026-05-07 16:59 48.65365 -91.35783 35912 ft 478 kts 107°
2026-05-07 16:59 48.63453 -91.26160 35912 ft 478 kts 107°
2026-05-07 17:00 48.61530 -91.16535 35910 ft 478 kts 107°
2026-05-07 17:00 48.59601 -91.06926 35902 ft 479 kts 107°
2026-05-07 17:01 48.57661 -90.97302 35909 ft 479 kts 107°
2026-05-07 17:01 48.55714 -90.87697 35912 ft 479 kts 107°
2026-05-07 17:02 48.53770 -90.78153 35907 ft 478 kts 107°
2026-05-07 17:02 48.51808 -90.68562 35906 ft 479 kts 108°
2026-05-07 17:03 48.49836 -90.58972 35903 ft 479 kts 108°
2026-05-07 17:03 48.47853 -90.49374 35901 ft 479 kts 108°
2026-05-07 17:04 48.45863 -90.39784 35901 ft 480 kts 108°
2026-05-07 17:04 48.43865 -90.30188 35904 ft 480 kts 108°
2026-05-07 17:05 48.41861 -90.20610 35904 ft 480 kts 108°
2026-05-07 17:05 48.39847 -90.11026 35904 ft 480 kts 108°
2026-05-07 17:06 48.37838 -90.01510 35899 ft 481 kts 108°
2026-05-07 17:06 48.35806 -89.91929 35901 ft 481 kts 108°
2026-05-07 17:07 48.33765 -89.82347 35900 ft 481 kts 108°
2026-05-07 17:07 48.31717 -89.72777 35902 ft 481 kts 108°
2026-05-07 17:08 48.29660 -89.63205 35900 ft 482 kts 108°
2026-05-07 17:08 48.27596 -89.53644 35898 ft 482 kts 108°
2026-05-07 17:09 48.25496 -89.44090 35893 ft 482 kts 113°
2026-05-07 17:09 48.22807 -89.34902 35898 ft 482 kts 114°
2026-05-07 17:10 48.20158 -89.25666 35882 ft 482 kts 114°
2026-05-07 17:10 48.17515 -89.16427 35887 ft 482 kts 114°
2026-05-07 17:11 48.14868 -89.07206 35892 ft 483 kts 114°
2026-05-07 17:11 48.12203 -88.97959 35897 ft 483 kts 114°
2026-05-07 17:12 48.09552 -88.88792 35900 ft 483 kts 114°
2026-05-07 17:12 48.06875 -88.79576 35901 ft 483 kts 114°
2026-05-07 17:13 48.04192 -88.70371 35904 ft 483 kts 114°
2026-05-07 17:13 48.01502 -88.61175 35904 ft 483 kts 115°
2026-05-07 17:14 47.98801 -88.51980 35908 ft 483 kts 115°
2026-05-07 17:14 47.96094 -88.42798 35911 ft 484 kts 115°
2026-05-07 17:15 47.93376 -88.33612 35913 ft 484 kts 115°
2026-05-07 17:15 47.90650 -88.24435 35916 ft 484 kts 115°
2026-05-07 17:16 47.87917 -88.15265 35913 ft 484 kts 115°
2026-05-07 17:16 47.85176 -88.06107 35914 ft 485 kts 115°
2026-05-07 17:17 47.82423 -87.96940 35911 ft 485 kts 115°
2026-05-07 17:17 47.79663 -87.87784 35914 ft 485 kts 115°
2026-05-07 17:18 47.76890 -87.78620 35912 ft 485 kts 115°
2026-05-07 17:18 47.74111 -87.69470 35914 ft 486 kts 115°
2026-05-07 17:19 47.71326 -87.60334 35917 ft 486 kts 116°
2026-05-07 17:19 47.68551 -87.51260 35915 ft 486 kts 116°
2026-05-07 17:20 47.65747 -87.42130 35917 ft 486 kts 116°
2026-05-07 17:20 47.62935 -87.33005 35917 ft 486 kts 116°
2026-05-07 17:21 47.60118 -87.23897 35918 ft 487 kts 116°
2026-05-07 17:21 47.57291 -87.14789 35920 ft 487 kts 116°
2026-05-07 17:22 47.54453 -87.05680 35922 ft 487 kts 116°
2026-05-07 17:22 47.51608 -86.96583 35923 ft 487 kts 116°
2026-05-07 17:23 47.48754 -86.87488 35924 ft 488 kts 116°
2026-05-07 17:23 47.45891 -86.78394 35923 ft 488 kts 116°
2026-05-07 17:24 47.43018 -86.69308 35924 ft 488 kts 117°
2026-05-07 17:24 47.40157 -86.60286 35925 ft 488 kts 117°
2026-05-07 17:25 47.37248 -86.51151 35923 ft 489 kts 117°
2026-05-07 17:25 47.34370 -86.42142 35926 ft 489 kts 117°
2026-05-07 17:26 47.31465 -86.33080 35928 ft 489 kts 117°
2026-05-07 17:26 47.28551 -86.24026 35927 ft 489 kts 117°
2026-05-07 17:27 47.25628 -86.14973 35930 ft 489 kts 117°
2026-05-07 17:27 47.22698 -86.05932 35933 ft 490 kts 117°
2026-05-07 17:28 47.19759 -85.96894 35933 ft 490 kts 117°
2026-05-07 17:28 47.16810 -85.87858 35940 ft 490 kts 117°
2026-05-07 17:29 47.13866 -85.78867 35934 ft 487 kts 116°
2026-05-07 17:29 47.10923 -85.69914 35935 ft 487 kts 117°
2026-05-07 17:30 47.07971 -85.60962 35934 ft 487 kts 117°
2026-05-07 17:30 47.05009 -85.52010 35934 ft 487 kts 117°
2026-05-07 17:31 47.02060 -85.43130 35933 ft 488 kts 117°
2026-05-07 17:31 46.99083 -85.34197 35929 ft 488 kts 117°
2026-05-07 17:32 46.96097 -85.25267 35929 ft 487 kts 117°
2026-05-07 17:32 46.93617 -85.17871 35930 ft 487 kts 117°
2026-05-07 17:33 46.90113 -85.07461 35933 ft 487 kts 117°
2026-05-07 17:33 46.87112 -84.98577 35935 ft 488 kts 117°
2026-05-07 17:34 46.84100 -84.89692 35934 ft 488 kts 117°
2026-05-07 17:34 46.81086 -84.80831 35939 ft 488 kts 118°
2026-05-07 17:35 46.78083 -84.72030 35938 ft 488 kts 118°
2026-05-07 17:35 46.75052 -84.63180 35936 ft 488 kts 118°
2026-05-07 17:36 46.72010 -84.54325 35940 ft 488 kts 118°
2026-05-07 17:36 46.68962 -84.45483 35932 ft 488 kts 118°
2026-05-07 17:37 46.65909 -84.36659 35926 ft 488 kts 118°
2026-05-07 17:37 46.62847 -84.27837 35929 ft 488 kts 118°
2026-05-07 17:38 46.59780 -84.19025 35926 ft 488 kts 118°
2026-05-07 17:38 46.56708 -84.10225 35926 ft 488 kts 118°
2026-05-07 17:39 46.53649 -84.01489 35928 ft 488 kts 118°
2026-05-07 17:39 46.50562 -83.92702 35929 ft 488 kts 118°
2026-05-07 17:40 46.47468 -83.83924 35931 ft 488 kts 119°
2026-05-07 17:40 46.44366 -83.75149 35927 ft 489 kts 119°
2026-05-07 17:41 46.41784 -83.67867 35924 ft 489 kts 119°
2026-05-07 17:41 46.38485 -83.59303 35916 ft 483 kts 132°
2026-05-07 17:42 46.34374 -83.51577 35940 ft 486 kts 128°
2026-05-07 17:42 46.30438 -83.43621 35924 ft 486 kts 128°
2026-05-07 17:43 46.26514 -83.35654 35926 ft 487 kts 128°
2026-05-07 17:43 46.22583 -83.27688 35926 ft 487 kts 128°
2026-05-07 17:44 46.18645 -83.19733 35929 ft 487 kts 128°
2026-05-07 17:44 46.14697 -83.11779 35928 ft 487 kts 128°
2026-05-07 17:45 46.10749 -83.03847 35928 ft 487 kts 128°
2026-05-07 17:45 46.06821 -82.95978 35932 ft 487 kts 128°
2026-05-07 17:46 46.02861 -82.88068 35939 ft 487 kts 128°
2026-05-07 17:46 45.98892 -82.80162 35943 ft 488 kts 128°
2026-05-07 17:47 45.94914 -82.72261 35941 ft 488 kts 129°
2026-05-07 17:47 45.90931 -82.64369 35939 ft 488 kts 129°
2026-05-07 17:48 45.86942 -82.56490 35943 ft 488 kts 129°
2026-05-07 17:48 45.82945 -82.48616 35944 ft 488 kts 129°
2026-05-07 17:49 45.78942 -82.40753 35942 ft 488 kts 129°
2026-05-07 17:49 45.74954 -82.32941 35948 ft 489 kts 129°
2026-05-07 17:50 45.70938 -82.25095 35947 ft 489 kts 129°
2026-05-07 17:50 45.66909 -82.17249 35946 ft 489 kts 129°
2026-05-07 17:51 45.62877 -82.09414 35949 ft 490 kts 130°
2026-05-07 17:51 45.58278 -82.02390 35954 ft 483 kts 141°
2026-05-07 17:52 45.53379 -81.95793 35956 ft 484 kts 141°
2026-05-07 17:52 45.48460 -81.89209 35957 ft 484 kts 141°
2026-05-07 17:53 45.43543 -81.82645 35957 ft 484 kts 141°
2026-05-07 17:53 45.38652 -81.76133 35952 ft 485 kts 141°
2026-05-07 17:54 45.33692 -81.69546 35948 ft 485 kts 141°
2026-05-07 17:54 45.28757 -81.63006 35955 ft 485 kts 141°
2026-05-07 17:55 45.23849 -81.56522 35953 ft 485 kts 142°
2026-05-07 17:55 45.18900 -81.49997 35952 ft 486 kts 142°
2026-05-07 17:56 45.13947 -81.43484 35953 ft 486 kts 142°
2026-05-07 17:56 45.09004 -81.37000 35955 ft 480 kts 142°
2026-05-07 17:57 45.06583 -81.33830 35717 ft 471 kts 142°
2026-05-07 17:57 45.04992 -81.31750 35355 ft 470 kts 142°
2026-05-07 17:57 45.01800 -81.27578 34695 ft 467 kts 142°
2026-05-07 17:57 44.99389 -81.24435 33755 ft 476 kts 142°
2026-05-07 17:58 44.96941 -81.21243 32728 ft 483 kts 142°
2026-05-07 17:58 44.94475 -81.18033 32120 ft 480 kts 142°
2026-05-07 17:58 44.92038 -81.14866 31732 ft 472 kts 142°
2026-05-07 17:58 44.89656 -81.11785 31625 ft 457 kts 143°
2026-05-07 17:59 44.87348 -81.08792 31459 ft 446 kts 143°
2026-05-07 17:59 44.85050 -81.05814 30582 ft 453 kts 142°
2026-05-07 17:59 44.82713 -81.02790 29592 ft 461 kts 142°
2026-05-07 17:59 44.80347 -80.99729 28533 ft 459 kts 142°
2026-05-07 18:00 44.78047 -80.96760 27878 ft 447 kts 142°
2026-05-07 18:00 44.75799 -80.93860 27497 ft 430 kts 142°
2026-05-07 18:00 44.73633 -80.91070 27075 ft 416 kts 143°
2026-05-07 18:00 44.71531 -80.88363 26648 ft 403 kts 143°
2026-05-07 18:01 44.69491 -80.85741 26246 ft 391 kts 143°
2026-05-07 18:01 44.67510 -80.83197 25862 ft 380 kts 143°
2026-05-07 18:01 44.65581 -80.80721 25483 ft 371 kts 143°
2026-05-07 18:01 44.63655 -80.78253 25099 ft 379 kts 143°
2026-05-07 18:02 44.59720 -80.73216 24249 ft 385 kts 143°
2026-05-07 18:02 44.57747 -80.70694 23867 ft 383 kts 142°
2026-05-07 18:02 44.55786 -80.68191 23518 ft 380 kts 142°
2026-05-07 18:03 44.53831 -80.65698 23081 ft 378 kts 142°
2026-05-07 18:03 44.51893 -80.63228 22681 ft 376 kts 142°
2026-05-07 18:03 44.49968 -80.60778 22317 ft 372 kts 142°
2026-05-07 18:03 44.48059 -80.58350 21943 ft 369 kts 142°
2026-05-07 18:04 44.46167 -80.55945 21582 ft 366 kts 143°
2026-05-07 18:04 44.44285 -80.53556 21213 ft 363 kts 143°
2026-05-07 18:04 44.42424 -80.51196 20854 ft 361 kts 143°
2026-05-07 18:04 44.40573 -80.48843 20592 ft 355 kts 142°
2026-05-07 18:05 44.38742 -80.46507 19900 ft 362 kts 143°
2026-05-07 18:05 44.36876 -80.44158 19518 ft 359 kts 143°
2026-05-07 18:05 44.35032 -80.41832 19226 ft 355 kts 143°
2026-05-07 18:05 44.33207 -80.39530 18902 ft 352 kts 143°
2026-05-07 18:06 44.31399 -80.37250 18570 ft 350 kts 143°
2026-05-07 18:06 44.29622 -80.35010 18234 ft 348 kts 143°
2026-05-07 18:06 44.27831 -80.32754 17882 ft 345 kts 143°
2026-05-07 18:06 44.26060 -80.30526 17578 ft 341 kts 143°
2026-05-07 18:07 44.24309 -80.28325 17253 ft 337 kts 143°
2026-05-07 18:07 44.22576 -80.26149 16923 ft 334 kts 143°
2026-05-07 18:07 44.20859 -80.23995 16601 ft 330 kts 143°
2026-05-07 18:07 44.19153 -80.21855 16272 ft 332 kts 142°
2026-05-07 18:08 44.17424 -80.19686 15881 ft 337 kts 142°
2026-05-07 18:08 44.15682 -80.17498 15527 ft 336 kts 142°
2026-05-07 18:08 44.13950 -80.15325 15214 ft 333 kts 142°
2026-05-07 18:08 44.12232 -80.13172 14889 ft 331 kts 142°
2026-05-07 18:09 44.10525 -80.11036 14556 ft 330 kts 142°
2026-05-07 18:09 44.08825 -80.08909 14221 ft 328 kts 142°
2026-05-07 18:09 44.07131 -80.06790 13894 ft 326 kts 141°
2026-05-07 18:09 44.05708 -80.04376 13792 ft 321 kts 120°
2026-05-07 18:10 44.04819 -80.01578 13776 ft 312 kts 118°
2026-05-07 18:10 44.03811 -79.98856 13735 ft 324 kts 120°
2026-05-07 18:10 44.02768 -79.96046 13690 ft 330 kts 119°
2026-05-07 18:10 44.01713 -79.93191 13657 ft 333 kts 119°
2026-05-07 18:11 44.00660 -79.90334 13618 ft 329 kts 119°
2026-05-07 18:11 43.99975 -79.88476 13318 ft 325 kts 120°
2026-05-07 18:11 43.98598 -79.84744 12442 ft 324 kts 119°
2026-05-07 18:11 43.97572 -79.81963 11785 ft 323 kts 119°
2026-05-07 18:12 43.96546 -79.79191 11155 ft 322 kts 119°
2026-05-07 18:12 43.95525 -79.76429 10540 ft 321 kts 119°
2026-05-07 18:12 43.94508 -79.73683 9936 ft 319 kts 119°
2026-05-07 18:12 43.93499 -79.70959 9275 ft 316 kts 119°
2026-05-07 18:13 43.92511 -79.68292 8648 ft 314 kts 119°
2026-05-07 18:13 43.91500 -79.65570 8020 ft 313 kts 119°
2026-05-07 18:13 43.90521 -79.62926 7393 ft 311 kts 119°
2026-05-07 18:13 43.89537 -79.60282 6893 ft 306 kts 119°
2026-05-07 18:14 43.88565 -79.57682 6341 ft 303 kts 119°
2026-05-07 18:14 43.87604 -79.55101 5729 ft 301 kts 119°
2026-05-07 18:14 43.86643 -79.52529 5139 ft 300 kts 118°
2026-05-07 18:14 43.85675 -79.49965 4542 ft 301 kts 118°
2026-05-07 18:15 43.84706 -79.47427 4125 ft 294 kts 119°
2026-05-07 18:15 43.83680 -79.45044 3757 ft 282 kts 133°
2026-05-07 18:15 43.82177 -79.43425 3415 ft 267 kts 159°
2026-05-07 18:15 43.80451 -79.42894 3203 ft 246 kts 185°
2026-05-07 18:16 43.78883 -79.43467 3025 ft 225 kts 213°
2026-05-07 18:16 43.77774 -79.44782 3044 ft 198 kts 229°
2026-05-07 18:16 43.76858 -79.46101 3041 ft 184 kts 230°
2026-05-07 18:16 43.75988 -79.47382 2958 ft 182 kts 229°
2026-05-07 18:17 43.75118 -79.48649 2798 ft 181 kts 230°
2026-05-07 18:17 43.74273 -79.49884 2566 ft 173 kts 230°
2026-05-07 18:17 43.73475 -79.51046 2407 ft 159 kts 230°
2026-05-07 18:17 43.72750 -79.52106 2181 ft 144 kts 231°
2026-05-07 18:18 43.72078 -79.53087 1965 ft 139 kts 230°
2026-05-07 18:18 43.71424 -79.54046 1774 ft 139 kts 232°
2026-05-07 18:18 43.70754 -79.55027 1577 ft 138 kts 230°
2026-05-07 18:18 43.70095 -79.55983 1329 ft 140 kts 230°
2026-05-07 18:19 43.69427 -79.56953 1146 ft 140 kts 230°
2026-05-07 18:19 43.68751 -79.57930 948 ft 141 kts 228°
2026-05-07 18:19 43.68078 -79.58910 776 ft 140 kts 230°
2026-05-07 18:19 43.67420 -79.59878 598 ft 136 kts 230°
2026-05-07 18:20 43.66823 -79.60747 564 ft 103 kts 226°
2026-05-07 18:20 43.66510 -79.61199 566 ft 41 kts 230°
2026-05-07 18:20 43.66398 -79.61508 565 ft 28 kts 251°
2026-05-07 18:20 43.66381 -79.61692 568 ft 14 kts 299°
2026-05-07 18:21 43.66445 -79.61784 570 ft 13 kts 316°
2026-05-07 18:21 43.66518 -79.61880 562 ft 16 kts 316°
2026-05-07 18:21 43.66594 -79.61946 568 ft 11 kts 12°
2026-05-07 18:21 43.66652 -79.61874 570 ft 12 kts 47°
2026-05-07 18:22 43.66719 -79.61776 564 ft 16 kts 46°
2026-05-07 18:22 43.66772 -79.61699 563 ft 18 kts 46°
2026-05-07 18:22 43.66898 -79.61516 567 ft 22 kts 47°
2026-05-07 18:22 43.67007 -79.61359 568 ft 24 kts 46°
2026-05-07 18:23 43.67119 -79.61194 568 ft 20 kts 50°
2026-05-07 18:23 43.67200 -79.61161 566 ft 13 kts 318°
2026-05-07 18:23 43.67265 -79.61246 564 ft 13 kts 317°
2026-05-07 18:23 43.67337 -79.61340 567 ft 15 kts 316°
2026-05-07 18:24 43.67416 -79.61444 565 ft 16 kts 316°
2026-05-07 18:24 43.67502 -79.61557 565 ft 18 kts 316°
2026-05-07 18:24 43.67593 -79.61674 575 ft 10 kts 317°
2026-05-07 18:24 43.67651 -79.61653 565 ft 11 kts 41°
2026-05-07 18:25 43.67720 -79.61667 564 ft 7 kts 342°
2026-05-07 18:25 43.67741 -79.61660 568 ft 1 kts 43°
2026-05-07 18:25 43.67758 -79.61634 568 ft 7 kts 46°
2026-05-07 18:25 43.67809 -79.61609 566 ft 8 kts 351°
2026-05-07 18:26 43.67857 -79.61627 568 ft 4 kts 343°
2026-05-07 18:26 43.67863 -79.61629 569 ft 0 kts 344°